Tracking 19484 objects as of 20-Jan-2019
HD Live streaming from Space Station
objects crossing your sky now

EUCROPIS

Track EUCROPIS now!
10-day predictions


NORAD ID: 43807
Int'l Code: 2018-099BB
Perigee: 578.7 km
Apogee: 598.6 km
Inclination: 97.8 °
Period: 96.3 minutes
Semi major axis: 6959 km
RCS: Unknown
Launch date: December 3, 2018
Source: Germany (GER)
Launch site: AIR FORCE WESTERN TEST RANGE (AFWTR)
aabbcc
Your satellite tracking list
Your tracking list is empty




NASA's NSSDC Master Catalog

Two Line Element Set (TLE):
1 43807U 18099BB  19020.19742739  .00000229  00000-0  26045-4 0  9997
2 43807  97.7618  93.8952 0014331 104.0647 256.2168 14.95271364  6493
Source of the keplerian elements: AFSPC